Theta_e
320 320 319 318 318 318 318 317 317 317 317 317 316 315 314 314 314 314 315 314 314 314 313 313 314 314 314 314 315 315 315 315 315 315 315 315 316 316 316 316 316 317
318 317 317 316 316 316 316 316 316 315 315 314 314 314 313 313 313 313 313 313 313 313 312 312 312 312 312 313 313 314 314 314 313 313 314 314 314 314 314 314 315 315
316 316 315 315 315 315 315 315 314 314 313 313 313 313 312 312 313 312 312 312 312 311 311 310 310 311 311 311 312 312 312 312 312 312 313 313 313 313 313 313 313 313
315 315 314 314 314 314 314 313 313 313 312 312 312 312 312 312 312 312 311 311 310 310 309 308 309 309 310 310 310 311 311 311 311 311 312 312 312 311 311 311 312 312
314 314 313 313 313 313 313 312 312 312 311 311 311 311 311 311 311 310 310 309 309 308 307 307 307 308 308 308 309 309 310 310 310 310 311 311 311 311 310 310 310 310
312 312 312 312 312 312 312 312 311 311 311 310 310 310 310 310 310 309 308 308 307 307 306 306 306 307 307 307 307 308 309 309 309 309 309 309 309 310 310 309 309 309
311 311 311 311 311 311 311 311 311 310 310 310 310 310 309 309 308 308 307 307 306 306 306 305 305 306 306 306 307 307 308 308 308 308 308 308 308 308 308 308 308 308
311 311 311 310 310 310 310 310 310 310 310 309 309 308 308 307 307 307 307 306 305 305 305 304 304 305 305 305 306 307 307 307 307 307 307 307 307 307 307 307 307 307
310 310 310 310 309 309 309 309 309 309 309 308 308 307 307 306 306 306 306 305 305 304 304 303 303 303 304 304 305 306 307 307 306 306 307 306 306 306 306 306 306 306
309 309 309 309 309 309 309 309 308 308 307 307 307 307 306 306 306 305 305 305 304 303 303 302 302 302 302 303 304 305 306 306 306 306 306 306 305 305 305 305 305 305
309 309 309 309 309 308 308 308 307 307 307 306 306 306 305 305 305 305 305 304 303 303 302 302 301 301 301 301 302 304 305 306 305 305 305 305 305 305 305 304 304 304
308 308 309 309 308 308 307 307 307 306 306 306 306 305 305 305 305 305 304 303 303 302 302 301 300 299 299 299 301 303 304 305 305 305 305 304 304 304 304 303 303 303
308 308 308 307 307 307 306 306 306 305 305 305 305 305 305 305 305 304 304 303 302 302 301 300 299 297 296 297 299 301 303 304 304 304 304 304 304 303 303 302 302 302
307 307 306 306 306 306 305 305 305 305 305 305 305 305 305 305 305 304 304 303 302 301 300 299 298 296 295 296 298 299 302 304 304 304 304 304 303 303 302 302 301 301
306 306 305 305 305 305 305 305 305 305 305 305 305 305 304 304 304 304 303 303 302 301 300 298 296 295 295 296 297 298 300 303 304 304 304 303 303 302 302 301 301 301
305 305 304 304 304 304 304 304 304 305 305 304 304 304 304 304 304 304 303 302 302 301 300 298 296 294 295 296 297 298 300 302 303 303 303 303 302 301 301 301 300 300
304 304 303 304 304 304 303 303 304 304 304 304 304 304 304 304 303 304 303 303 301 300 299 298 295 294 294 296 298 299 300 301 303 303 302 302 301 301 301 300 300 300
303 303 303 303 303 302 302 302 302 303 303 303 304 303 304 304 303 303 303 303 302 300 298 297 295 294 294 296 298 299 300 301 302 302 302 301 301 300 300 300 300 299
302 302 301 301 301 301 301 302 302 302 303 303 303 303 303 303 303 303 303 303 302 301 299 296 294 293 294 295 298 299 300 301 302 302 301 301 300 300 299 299 299 298
301 301 301 301 301 301 302 302 302 302 303 303 303 303 303 303 302 302 302 302 302 301 300 296 293 293 294 295 297 299 300 301 302 301 301 301 300 300 299 299 299 298
301 301 301 301 302 302 302 302 302 302 302 303 303 303 303 302 302 302 302 302 301 301 300 297 293 293 293 294 296 299 300 301 302 301 301 300 300 299 299 299 298 298
301 301 301 301 301 302 302 302 302 302 302 302 303 302 302 302 302 301 301 301 301 301 301 297 294 292 293 293 295 298 300 300 301 301 300 300 300 299 299 299 298 298
301 301 301 301 301 301 302 302 302 302 301 301 302 302 302 301 302 301 301 300 300 300 301 298 294 292 292 293 294 296 299 300 300 300 300 300 299 299 299 298 298 297
301 301 301 301 301 301 302 302 302 301 301 301 301 301 301 301 301 302 301 300 299 299 300 299 296 294 293 293 293 294 297 299 299 299 300 299 299 299 299 298 298 297
301 301 301 301 301 302 302 302 302 301 301 301 301 301 301 301 301 301 301 301 300 299 298 299 298 296 294 294 293 293 295 297 298 298 299 300 299 298 298 298 297 297
301 301 301 302 302 302 302 302 302 301 301 301 301 301 301 301 301 301 301 301 301 300 299 298 299 298 296 294 294 293 294 295 297 297 297 298 299 298 298 298 297 297
Wind_Speed
11 10 9 9 9 9 9 8 8 8 8 8 7 7 7 8 8 9 9 9 9 10 10 10 10 10 10 10 10 10 9 10 11 11 11 11 11 11 12 13 13 13
11 10 10 10 10 10 10 10 10 9 9 9 8 8 8 8 9 9 9 8 9 9 10 10 11 11 11 11 11 10 10 11 11 11 11 12 11 12 13 13 13 14
12 12 11 11 11 11 11 11 10 10 10 9 9 8 8 8 8 8 8 8 9 9 10 11 11 11 11 11 11 10 10 10 12 13 12 11 12 12 13 13 13 14
13 12 12 12 12 11 11 11 10 10 10 9 9 8 8 8 8 8 8 9 9 10 11 12 12 12 12 11 11 10 10 10 12 13 12 11 12 12 12 13 13 14
12 12 12 12 12 11 11 11 11 10 10 9 9 9 8 8 8 8 8 9 10 10 11 12 12 12 12 12 11 11 11 11 12 13 12 11 12 12 13 13 14 14
12 12 12 12 12 12 12 11 10 10 10 9 9 8 8 8 8 9 9 10 10 11 11 12 13 12 12 12 12 12 12 11 13 13 12 12 12 13 13 13 14 15
13 13 13 13 13 12 12 11 11 10 10 9 9 9 9 9 9 9 10 10 11 12 12 12 13 13 13 12 12 13 12 12 13 13 13 13 13 13 14 14 14 15
13 13 13 13 13 13 12 11 11 10 9 9 9 9 9 9 9 9 10 11 11 12 13 13 13 13 13 13 13 13 12 12 13 13 13 13 13 14 15 15 15 15
13 13 13 13 13 13 12 11 11 10 9 9 9 9 9 10 10 10 10 11 12 13 13 14 14 14 14 13 13 13 12 12 13 13 13 13 14 15 15 15 15 16
13 13 13 13 12 12 12 11 11 10 10 9 9 9 9 9 10 10 10 11 12 13 13 14 15 15 15 14 14 13 12 12 12 13 13 13 14 14 15 15 16 16
13 13 13 13 12 12 11 11 10 10 10 9 9 9 9 9 9 9 10 12 12 13 14 15 16 16 16 15 15 13 12 11 12 13 13 13 14 14 15 16 16 17
14 13 12 12 12 11 11 10 10 10 9 9 9 9 10 10 9 10 10 12 13 13 14 15 16 17 18 17 15 13 12 11 12 12 12 12 13 14 15 16 16 16
13 12 12 11 11 10 10 10 10 10 10 10 9 9 9 9 9 10 10 11 13 14 15 16 17 20 20 19 15 13 12 12 12 12 12 12 13 14 15 15 16 16
12 12 12 11 11 11 11 10 10 10 10 10 9 9 9 9 9 9 10 11 12 13 15 16 18 22 22 20 17 13 12 11 12 12 12 13 13 14 14 15 16 16
12 12 12 11 11 11 11 11 10 10 10 10 9 9 9 8 9 9 10 11 12 13 14 16 20 23 22 18 17 14 11 10 11 12 12 13 13 14 14 15 17 17
13 12 12 12 11 11 11 10 10 10 10 10 10 9 9 9 8 9 10 11 13 14 14 16 21 25 20 15 14 13 11 10 10 12 12 13 14 14 15 16 17 17
13 13 12 12 12 11 11 10 10 10 10 10 10 9 8 8 9 9 10 11 12 14 14 16 21 24 20 15 13 12 11 10 10 11 12 12 14 15 15 17 18 18
13 13 13 12 12 12 11 11 10 9 9 9 9 9 8 8 9 9 9 9 10 13 15 17 21 23 20 16 13 13 13 12 11 11 11 12 14 15 16 17 18 20
13 14 13 13 12 12 11 11 9 8 8 8 9 9 9 9 9 9 8 8 9 11 14 18 22 23 21 16 12 12 13 12 11 10 10 12 14 15 16 17 18 20
15 14 13 13 12 11 11 10 9 7 7 7 7 8 8 9 9 9 8 8 8 9 12 17 22 23 22 18 13 11 12 12 10 10 10 12 14 14 16 17 17 20
15 14 13 13 12 11 11 10 8 8 7 7 7 7 8 8 9 9 9 8 8 9 10 15 21 22 22 21 15 11 13 12 10 10 11 11 13 14 15 16 17 19
15 14 14 13 12 12 11 9 8 8 7 7 7 8 8 8 8 9 9 9 8 9 9 13 19 22 23 23 19 14 14 14 11 10 11 11 12 14 14 15 16 16
15 14 14 13 12 12 11 9 8 8 8 7 8 8 8 8 8 9 9 10 10 9 9 11 17 22 24 24 22 17 15 15 13 10 11 11 12 13 15 15 14 14
15 14 14 13 12 11 10 9 8 8 8 8 8 8 8 8 8 8 9 9 10 11 10 9 12 20 24 25 25 22 18 15 14 12 11 12 12 13 14 15 14 16
15 14 14 13 12 10 9 9 8 8 7 8 8 8 8 9 9 9 8 8 8 9 10 9 8 14 22 24 24 25 22 16 15 14 12 13 14 13 13 14 15 17
14 14 13 12 11 10 9 8 8 8 8 8 8 8 8 8 8 9 9 8 7 6 7 9 9 11 18 22 22 24 24 19 15 14 15 16 14 14 14 14 16 17
Wind_Direction
90 95 95 92 87 86 85 86 85 80 77 76 72 64 52 45 44 44 44 41 38 33 25 20 16 12 10 7 6 4 2 3 360 356 355 353 353 352 350 348 346 343
88 93 94 94 90 89 88 86 85 82 79 76 75 72 62 56 54 52 50 45 38 33 26 21 18 16 14 10 8 7 5 5 2 357 355 354 353 352 350 349 348 346
91 94 95 94 92 91 89 86 84 82 80 77 76 75 69 64 61 56 50 45 39 33 29 25 22 20 17 13 11 10 7 6 4 360 357 358 358 355 353 351 350 349
92 93 93 92 90 90 89 87 85 83 82 80 76 75 74 70 66 57 48 45 43 38 33 30 26 23 18 14 13 11 9 8 5 1 360 2 1 358 356 354 352 351
90 89 90 90 89 90 89 88 86 85 82 80 78 77 76 73 66 58 52 49 46 41 37 33 28 24 19 17 16 13 11 10 7 4 3 5 3 1 359 356 354 353
89 88 88 89 90 90 90 90 88 87 84 83 83 78 75 74 67 61 57 54 49 44 39 34 29 24 19 17 16 13 12 9 7 6 6 6 3 2 1 357 355 353
91 90 90 89 90 91 92 92 91 89 86 84 83 77 74 74 69 65 60 55 51 45 39 34 29 23 18 16 15 13 12 9 7 7 7 6 2 2 2 358 355 353
94 93 94 92 92 92 91 92 92 90 87 85 81 76 74 73 69 65 60 56 52 45 40 35 29 23 19 16 14 13 13 11 8 7 6 5 3 2 1 359 356 354
97 96 96 95 93 92 90 90 90 88 87 84 82 78 74 70 68 65 61 57 53 47 41 35 29 23 18 16 14 12 12 12 10 9 7 5 5 4 1 0 359 356
100 99 98 96 93 91 89 88 87 85 84 81 79 77 72 70 68 65 63 58 53 49 42 34 28 22 17 15 13 11 11 11 11 10 8 7 6 4 3 2 360 359
103 102 99 96 93 91 88 87 84 83 80 77 76 74 70 69 68 66 65 60 54 49 41 34 27 20 15 13 11 11 10 10 12 11 9 8 5 4 6 5 3 2
106 103 100 97 94 92 89 86 83 82 79 76 75 74 72 71 69 67 66 61 55 49 42 35 27 20 18 14 11 9 7 10 14 12 10 9 7 8 9 8 6 5
108 105 102 99 96 93 89 85 83 80 79 76 74 74 75 74 73 71 67 62 57 50 43 35 26 22 20 18 13 5 4 12 15 11 10 11 11 11 12 9 7 6
109 105 102 99 97 93 89 86 83 80 78 78 75 74 73 74 75 75 71 65 58 51 44 36 27 22 20 19 17 9 5 11 14 12 9 11 13 11 10 10 7 5
108 104 101 98 95 90 87 85 82 81 80 80 79 76 74 74 75 75 73 67 60 52 44 35 27 22 20 19 18 14 8 3 8 13 10 10 13 10 9 9 6 4
109 106 101 97 92 88 86 83 81 80 80 80 80 79 76 75 74 75 72 66 59 51 43 35 26 21 22 27 25 22 16 2 2 10 12 12 11 8 8 7 4 2
110 107 102 97 93 88 85 82 79 79 78 78 80 78 78 76 74 73 71 68 62 52 44 34 24 20 24 32 36 36 27 12 4 8 12 13 12 9 7 4 2 1
110 106 100 94 90 88 85 81 79 78 79 80 80 78 78 76 74 73 71 70 66 55 45 32 24 22 25 31 40 43 34 20 10 11 13 13 13 11 7 4 1 359
109 104 99 95 91 91 90 88 86 85 84 85 84 82 80 75 73 72 70 69 68 60 47 32 23 23 26 30 37 41 37 27 15 13 14 13 14 13 8 5 2 359
111 108 105 103 101 100 98 96 96 94 94 94 93 89 85 80 76 71 68 67 65 65 52 33 23 24 28 30 33 36 35 30 20 15 13 12 14 12 7 6 4 360
116 114 111 109 107 104 101 99 99 100 100 98 96 92 87 84 79 73 70 66 62 65 60 37 23 23 29 31 31 34 32 29 22 15 13 11 11 10 8 8 4 359
121 118 114 111 108 106 105 104 104 104 103 101 99 95 90 86 82 77 71 67 62 62 65 46 26 23 29 31 31 34 32 25 18 11 10 10 8 6 7 7 6 5
124 121 117 115 112 110 109 108 108 104 101 101 99 95 93 89 87 85 76 69 63 57 62 56 33 25 28 31 31 34 32 20 12 8 5 5 8 5 4 9 13 18
127 124 121 119 115 114 114 113 112 107 102 101 99 95 95 91 89 90 84 76 69 58 57 60 38 24 24 28 29 31 32 21 9 6 360 359 7 5 3 12 12 10
128 125 123 121 118 118 117 114 112 107 104 104 101 97 95 90 87 87 84 81 77 66 55 52 38 16 15 22 26 26 28 24 11 6 356 349 357 2 2 10 8 360
128 126 124 124 122 120 118 114 110 105 101 97 93 92 90 87 86 85 81 76 72 71 57 41 36 17 6 13 22 23 23 21 13 8 356 341 345 356 358 3 5 358